Weather History for Winchester, TN

Change the Weather History Date:

Wednesday, January 30, 2013

  Actual Average (KTHA) Record (KTHA)
Temperature  
Mean Temperature 52 °F -  
Max Temperature 69 °F 49 °F 69 °F (2013)
Min Temperature 35 °F 30 °F 1 °F (2014)
Degree Days  
Heating Degree Days 13    
Growing Degree Days 2 (Base 50)    
Moisture  
Dew Point 50 °F    
Average Humidity 87    
Maximum Humidity 100    
Minimum Humidity 65    
Precipitation  
Precipitation 0.00 in - - ()
Sea Level Pressure  
Sea Level Pressure 29.66 in    
Wind  
Wind Speed 13 mph (SSW)    
Max Wind Speed 22 mph    
Max Gust Speed 38 mph    
Visibility 8 miles    
Events      
Averages and records for this station are not official NWS values.
T = Trace of Precipitation, MM = Missing Value Source: NWS Daily Summary

Daily Weather History Graph

Daily Weather History Graph

Search for Another Location

Airport:

Trip Planner

Search our weather history database for the weather conditions in past years. The results will help you decide how hot, cold, wet, or windy it might be!

Date:

Astronomy

Jan. 30, 2013 Rise Set
Actual Time 7:44 AM EST 6:10 PM EST
Civil Twilight 7:17 AM EST 6:37 PM EST
Nautical Twilight 6:47 AM EST 7:08 PM EST
Astronomical Twilight 6:17 AM EST 7:38 PM EST
Moon 9:57 PM EST (1/30) 9:22 AM EST (1/30)
Length of Visible Light 11h 19m
Length of Day
10h 26m
Waning Gibbous, 88% of the Moon is Illuminated
Jan 30
Waning Gibbous
Feb 3
Last Quarter
Feb 10
New
Feb 17
First Quarter
Feb 25
Full

Hourly Weather History & Observations

Time (EST) Temp. Windchill Dew Point Humidity Pressure Visibility Wind Dir Wind Speed Gust Speed Precip Events Conditions
12:15 AM 66.2 °F - 60.8 °F 83% 29.80 in 10.0 mi South 15.0 mph - N/A   Overcast
12:35 AM 68.0 °F - 60.8 °F 78% 29.79 in 10.0 mi South 15.0 mph - N/A   Overcast
12:55 AM 66.2 °F - 60.8 °F 83% 29.76 in 10.0 mi South 18.4 mph - N/A   Overcast
1:35 AM 66.2 °F - 60.8 °F 83% 29.72 in 10.0 mi South 19.6 mph 31.1 mph N/A   Mostly Cloudy
1:55 AM 68.0 °F - 60.8 °F 78% 29.73 in 10.0 mi South 18.4 mph 28.8 mph N/A   Overcast
2:15 AM 68.0 °F - 60.8 °F 78% 29.72 in 10.0 mi South 18.4 mph 29.9 mph N/A   Overcast
2:35 AM 68.0 °F - 60.8 °F 78% 29.71 in 10.0 mi South 16.1 mph 34.5 mph N/A   Overcast
2:55 AM 68.0 °F - 60.8 °F 78% 29.69 in 10.0 mi South 17.3 mph - N/A   Overcast
3:15 AM 68.0 °F - 60.8 °F 78% 29.68 in 10.0 mi South 21.9 mph 35.7 mph N/A   Overcast
3:35 AM 69.8 °F - 60.8 °F 73% 29.68 in 10.0 mi South 16.1 mph 33.4 mph N/A   Overcast
3:55 AM 68.0 °F - 60.8 °F 78% 29.66 in 10.0 mi South 19.6 mph 38.0 mph N/A   Overcast
4:15 AM 66.2 °F - 62.6 °F 88% 29.67 in 10.0 mi South 12.7 mph 31.1 mph N/A   Overcast
4:35 AM 66.2 °F - 62.6 °F 88% 29.64 in 10.0 mi South 19.6 mph - N/A   Overcast
4:55 AM 68.0 °F - 60.8 °F 78% 29.64 in 10.0 mi SSW 21.9 mph 28.8 mph N/A   Overcast
5:15 AM 68.0 °F - 62.6 °F 83% 29.64 in 10.0 mi SSW 18.4 mph 32.2 mph N/A   Overcast
5:35 AM 68.0 °F - 62.6 °F 83% 29.64 in 10.0 mi SSW 16.1 mph 38.0 mph N/A   Overcast
5:55 AM 66.2 °F - 62.6 °F 88% 29.62 in 6.0 mi South 17.3 mph 27.6 mph N/A   Overcast
6:15 AM 66.2 °F - 62.6 °F 88% 29.61 in 9.0 mi South 16.1 mph - N/A   Overcast
6:35 AM 66.2 °F - 62.6 °F 88% 29.61 in 5.0 mi South 11.5 mph - N/A   Overcast
6:55 AM 66.2 °F - 62.6 °F 88% 29.61 in - SW 10.4 mph - N/A   Overcast
7:15 AM 59.0 °F - 55.4 °F 88% 29.66 in 1.8 mi NW 13.8 mph 31.1 mph N/A   Overcast
7:35 AM 53.6 °F - 53.6 °F 100% 29.68 in 1.2 mi NNW 8.1 mph - N/A   Overcast
7:55 AM 53.6 °F - 53.6 °F 100% 29.69 in 2.0 mi NW 3.5 mph - N/A   Overcast
8:15 AM 53.6 °F - 53.6 °F 100% 29.69 in 2.5 mi Calm Calm - N/A   Overcast
8:35 AM 53.6 °F - 53.6 °F 100% 29.68 in 4.0 mi South 4.6 mph - N/A   Overcast
8:55 AM 53.6 °F - 53.6 °F 100% 29.64 in 4.0 mi Calm Calm - N/A   Overcast
9:15 AM 53.6 °F - 53.6 °F 100% 29.67 in 3.0 mi SSE 5.8 mph - N/A   Overcast
9:35 AM 53.6 °F - 51.8 °F 94% 29.65 in 3.0 mi SE 4.6 mph - N/A   Overcast
9:55 AM 53.6 °F - 53.6 °F 100% 29.64 in 3.0 mi SSE 3.5 mph - N/A   Overcast
10:15 AM 53.6 °F - 53.6 °F 100% 29.64 in 2.5 mi South 4.6 mph - N/A   Overcast
10:35 AM 53.6 °F - 53.6 °F 100% 29.63 in 2.5 mi Calm Calm - N/A   Overcast
10:55 AM 53.6 °F - 53.6 °F 100% 29.65 in 3.0 mi SSW 8.1 mph - N/A   Overcast
11:15 AM 53.6 °F - 53.6 °F 100% 29.65 in 4.0 mi WSW 5.8 mph - N/A   Overcast
11:35 AM 53.6 °F - 53.6 °F 100% 29.64 in 4.0 mi Calm Calm - N/A   Overcast
11:55 AM 53.6 °F - 53.6 °F 100% 29.63 in 5.0 mi SW 3.5 mph - N/A   Overcast
12:15 PM 51.8 °F - 51.8 °F 100% 29.61 in 4.0 mi South 6.9 mph - N/A   Overcast
12:35 PM 51.8 °F - 50.0 °F 94% 29.59 in 5.0 mi South 4.6 mph - N/A   Mostly Cloudy
12:55 PM 51.8 °F - 50.0 °F 94% 29.61 in 4.0 mi SSW 4.6 mph - N/A   Mostly Cloudy
1:15 PM 51.8 °F - 48.2 °F 88% 29.62 in 4.0 mi SW 6.9 mph - N/A   Overcast
1:35 PM 50.0 °F - 46.4 °F 87% 29.59 in 6.0 mi SW 4.6 mph - N/A   Mostly Cloudy
1:55 PM 48.2 °F - 44.6 °F 87% 29.59 in 6.0 mi SSW 5.8 mph - N/A   Overcast
2:15 PM 48.2 °F - 46.4 °F 93% 29.58 in 5.0 mi South 5.8 mph - N/A   Overcast
2:35 PM 48.2 °F - 46.4 °F 93% 29.56 in 6.0 mi SE 4.6 mph - N/A   Overcast
2:55 PM 48.2 °F - 46.4 °F 93% 29.58 in 10.0 mi Calm Calm - N/A   Mostly Cloudy
3:15 PM 50.0 °F - 46.4 °F 87% 29.58 in 8.0 mi Calm Calm - N/A   Overcast
3:35 PM 50.0 °F - 46.4 °F 87% 29.58 in 10.0 mi South 6.9 mph - N/A   Mostly Cloudy
3:55 PM 50.0 °F - 48.2 °F 94% 29.58 in 10.0 mi South 6.9 mph - N/A   Mostly Cloudy
4:15 PM 50.0 °F - 48.2 °F 94% 29.58 in 10.0 mi South 5.8 mph - N/A   Overcast
4:35 PM 50.0 °F - 46.4 °F 87% 29.55 in 10.0 mi South 5.8 mph - N/A   Overcast
4:55 PM 50.0 °F - 46.4 °F 87% 29.55 in 10.0 mi South 6.9 mph - N/A   Overcast
5:15 PM 50.0 °F - 46.4 °F 87% 29.55 in 10.0 mi SSW 6.9 mph - N/A   Overcast
5:35 PM 50.0 °F - 46.4 °F 87% 29.59 in 10.0 mi SSW 6.9 mph - N/A   Mostly Cloudy
5:55 PM 51.8 °F - 46.4 °F 82% 29.57 in 10.0 mi SW 11.5 mph - N/A   Mostly Cloudy
6:15 PM 51.8 °F - 46.4 °F 82% 29.57 in 10.0 mi SW 12.7 mph - N/A   Mostly Cloudy
6:35 PM 51.8 °F - 44.6 °F 76% 29.56 in 10.0 mi SW 18.4 mph - N/A   Overcast
6:55 PM 50.0 °F - 42.8 °F 76% 29.58 in 10.0 mi WSW 15.0 mph - N/A   Mostly Cloudy
7:15 PM 46.4 °F 39.0 °F 44.6 °F 93% 29.62 in 4.0 mi West 19.6 mph 28.8 mph N/A   Mostly Cloudy
7:35 PM 46.4 °F 40.7 °F 42.8 °F 87% 29.62 in 9.0 mi West 12.7 mph - N/A   Overcast
7:55 PM 46.4 °F 40.4 °F 42.8 °F 87% 29.65 in 10.0 mi West 13.8 mph - N/A   Overcast
8:15 PM 42.8 °F 34.3 °F 39.2 °F 87% 29.68 in 5.0 mi WNW 19.6 mph 32.2 mph N/A   Overcast
8:35 PM 41.0 °F 33.5 °F 37.4 °F 87% 29.70 in 6.0 mi West 13.8 mph - N/A   Overcast
8:55 PM 41.0 °F 33.9 °F 35.6 °F 81% 29.72 in 10.0 mi West 12.7 mph - N/A   Overcast
9:15 PM 41.0 °F 33.9 °F 33.8 °F 76% 29.73 in 10.0 mi West 12.7 mph 29.9 mph N/A   Overcast
9:35 PM 39.2 °F 30.2 °F 33.8 °F 81% 29.74 in 10.0 mi West 17.3 mph - N/A   Overcast
9:55 PM 39.2 °F 31.6 °F 32.0 °F 75% 29.75 in 10.0 mi West 12.7 mph 29.9 mph N/A   Overcast
10:15 PM 39.2 °F 30.8 °F 32.0 °F 75% 29.77 in 10.0 mi West 15.0 mph - N/A   Overcast
10:35 PM 37.4 °F 27.5 °F 28.4 °F 70% 29.80 in 10.0 mi West 18.4 mph - N/A   Overcast
11:15 PM 37.4 °F 27.8 °F 26.6 °F 65% 29.85 in 10.0 mi West 17.3 mph 29.9 mph N/A   Overcast
11:35 PM 35.6 °F 26.2 °F 24.8 °F 65% 29.87 in 10.0 mi West 15.0 mph - N/A   Overcast
11:55 PM 35.6 °F 26.6 °F 24.8 °F 65% 29.88 in 10.0 mi West 13.8 mph - N/A   Overcast